Marion, OH

3:13 AM EDT on September 25, 2017 (GMT -0400)
Marion Municipal

Weather History for KMNN - April, 2013

Change the Weather History Date:

Sunday, April 28, 2013

  Actual Average (KDLZ) Record (KDLZ)
Temperature  
Mean Temperature 56 °F -  
Max Temperature 61 °F 65 °F 87 °F (1986)
Min Temperature 51 °F 40 °F 27 °F (1946)
Degree Days  
Heating Degree Days 10    
Growing Degree Days 6 (Base 50)    
Moisture  
Dew Point 53 °F    
Average Humidity 90    
Maximum Humidity 100    
Minimum Humidity 72    
Precipitation  
Precipitation 0.57 in - - ()
Sea Level Pressure  
Sea Level Pressure 29.93 in    
Wind  
Wind Speed 9 mph (SSE)    
Max Wind Speed 15 mph    
Max Gust Speed -    
Averages and records for this station are not official NWS values.
T = Trace of Precipitation, MM = Missing Value Source: NWS Daily Summary

Daily Weather History Graph

Daily Weather History Graph

Search for Another Location

Airport or City:

Trip Planner

Search our weather history database for the weather conditions in past years. The results will help you decide how hot, cold, wet, or windy it might be!

Date:

Astronomy

Apr. 28, 2013 Rise Set
Actual Time 6:34 AM EDT 8:25 PM EDT
Civil Twilight 6:05 AM EDT 8:54 PM EDT
Nautical Twilight 5:29 AM EDT 9:30 PM EDT
Astronomical Twilight 4:51 AM EDT 10:09 PM EDT
Moon 11:55 PM EDT (4/28) 8:49 AM EDT (4/28)
Length of Visible Light 14h 49m
Length of Day
13h 50m
Waning Gibbous, 89% of the Moon is Illuminated
Apr 28
Waning Gibbous
May 2
Last Quarter
May 9
New
May 18
First Quarter
May 25
Full

Hourly Weather History & Observations

Time (EDT) Temp. Dew Point Humidity Pressure Visibility Wind Dir Wind Speed Gust Speed Precip Events Conditions
12:53 AM 54.0 °F 46.0 °F 75% 30.10 in - SE 3.5 mph - N/A   Overcast
1:53 AM 54.0 °F 45.0 °F 72% 30.07 in - SSE 4.6 mph - N/A   Clear
2:53 AM 53.1 °F 46.0 °F 77% 30.04 in - ESE 6.9 mph - N/A   Overcast
3:53 AM 55.0 °F 46.0 °F 72% 30.01 in - SE 8.1 mph - N/A   Overcast
4:53 AM 55.9 °F 46.9 °F 72% 30.00 in - SE 10.4 mph - N/A   Overcast
5:53 AM 55.9 °F 46.9 °F 72% 29.98 in - SE 12.7 mph - 0.00 in Rain Light Rain
6:27 AM 53.6 °F 50.0 °F 88% 29.98 in - SSE 9.2 mph - 0.03 in Rain Rain
6:53 AM 53.1 °F 50.0 °F 89% 29.98 in - SE 9.2 mph - 0.08 in Rain Rain
7:00 AM 53.6 °F 50.0 °F 88% 29.98 in - SE 9.2 mph - 0.01 in Rain Rain
7:18 AM 53.6 °F 51.8 °F 94% 29.98 in - SE 11.5 mph - 0.08 in Rain Rain
7:53 AM 53.1 °F 51.1 °F 93% 29.98 in - SE 9.2 mph - 0.14 in Rain Light Rain
8:10 AM 51.8 °F 51.8 °F 100% 29.98 in - SE 10.4 mph - 0.01 in Rain Light Rain
8:30 AM 53.6 °F 51.8 °F 94% 29.98 in - SE 11.5 mph - 0.02 in Rain Light Rain
8:49 AM 53.6 °F 51.8 °F 94% 29.98 in - SSE 10.4 mph - 0.03 in Rain Light Rain
9:19 AM 53.6 °F 51.8 °F 94% 29.97 in - SE 13.8 mph - 0.01 in Rain Light Rain
9:53 AM 53.1 °F 52.0 °F 96% 29.96 in - SE 13.8 mph - 0.04 in Rain Light Rain
10:21 AM 53.6 °F 51.8 °F 94% 29.96 in - SSE 9.2 mph - 0.01 in Rain Light Rain
10:49 AM 55.4 °F 53.6 °F 94% 29.95 in - SSE 11.5 mph - 0.04 in Rain Light Rain
10:53 AM 55.0 °F 53.1 °F 93% 29.96 in - SSE 12.7 mph - 0.04 in Rain Light Rain
11:53 AM 55.0 °F 53.1 °F 93% 29.96 in - SSE 12.7 mph - 0.00 in   Overcast
12:53 PM 55.9 °F 54.0 °F 93% 29.93 in - South 12.7 mph - 0.01 in Rain Light Rain
1:53 PM 57.9 °F 55.0 °F 90% 29.91 in - South 13.8 mph - 0.00 in   Overcast
2:53 PM 60.1 °F 55.9 °F 86% 29.90 in - South 15.0 mph - N/A   Overcast
3:27 PM 60.8 °F 55.4 °F 82% 29.88 in - South 12.7 mph - N/A   Overcast
3:40 PM 60.8 °F 55.4 °F 82% 29.88 in - South 10.4 mph - N/A   Overcast
3:53 PM 59.0 °F 55.0 °F 87% 29.88 in - South 13.8 mph - N/A   Overcast
4:35 PM 59.0 °F 55.4 °F 88% 29.87 in - South 9.2 mph - N/A   Overcast
4:53 PM 60.1 °F 55.9 °F 86% 29.87 in - South 10.4 mph - N/A   Overcast
5:53 PM 60.1 °F 55.9 °F 86% 29.86 in - South 8.1 mph - 0.00 in   Overcast
6:14 PM 60.8 °F 55.4 °F 82% 29.85 in - SSE 12.7 mph - N/A   Overcast
6:53 PM 60.1 °F 55.9 °F 86% 29.85 in - SSE 10.4 mph - N/A   Overcast
7:53 PM 59.0 °F 55.9 °F 90% 29.86 in - South 6.9 mph - 0.04 in Rain Rain
8:07 PM 59.0 °F 57.2 °F 94% 29.87 in - SSW 8.1 mph - 0.06 in Rain Rain
8:53 PM 57.9 °F 57.0 °F 97% 29.87 in - SSE 3.5 mph - 0.22 in Rain Light Rain
9:00 PM 57.2 °F 57.2 °F 100% 29.87 in - SSE 5.8 mph - 0.00 in Rain Light Rain
9:05 PM 57.2 °F 57.2 °F 100% 29.87 in - SE 3.5 mph - 0.00 in Rain Light Rain
9:26 PM 57.2 °F 57.2 °F 100% 29.87 in - SE 5.8 mph - 0.00 in   Overcast
9:43 PM 57.2 °F 57.2 °F 100% 29.87 in - SSE 4.6 mph - 0.00 in   Overcast
9:51 PM 57.2 °F 57.2 °F 100% 29.87 in - South 5.8 mph - 0.00 in   Overcast
9:53 PM 57.9 °F 57.0 °F 97% 29.88 in - South 4.6 mph - 0.00 in   Overcast
10:00 PM 57.2 °F 55.4 °F 94% 29.88 in - South 6.9 mph - N/A   Overcast
10:53 PM 55.0 °F 54.0 °F 96% 29.89 in - South 6.9 mph - N/A   Scattered Clouds
11:37 PM 55.4 °F 53.6 °F 94% 29.88 in - South 6.9 mph - N/A   Mostly Cloudy
11:53 PM 55.0 °F 54.0 °F 96% 29.88 in - SSW 6.9 mph - N/A   Overcast